[[{"header":{"parameterUnit":"m.s-1","parameterCategory":1,"la1":30.2991,"la2":30.254,"lo1":-89.0895,"lo2":-89.0444,"dy":0.0017,"dx":0.0017,"nx":28,"ny":28,"refTime":"2024-07-27T09:00:00:Z","depth":0,"parameterNumber":2,"parameterNumberName":"U-component_of_WINDS"},"data":[0,0,0,0,0,0,0,0,0,0,0,0,0,0,0,0,0,0,0,0,0,0,0,0,0,0,0,0,0,0,0,0,0,0,0,0,0,0,0,0,0,0,0,0,0,0,0,0,0,0,0,0,0,0,0,0,0,0,-0.9919,-0.9919,0,-0.9908,-0.9908,-0.9908,-0.9911,-0.9911,-0.9911,-0.9911,-0.9901,-0.99,-0.99,0,0,0,0,0,0,0,0,0,0,0,0,0,-0.9942,-0.9941,-0.9919,-0.9919,-0.9919,-0.9908,-0.9908,-0.9908,-0.9911,-0.9911,-0.9911,-0.9912,-0.9901,-0.99,-0.99,0,0,0,0,0,0,0,0,0,0,0,0,0,-0.9931,-0.9941,-0.9919,-0.9919,-0.9919,-0.9908,-0.9908,-0.9908,-0.9911,-0.9911,-0.9911,-0.9912,-0.9901,-0.99,-0.9899,-0.9888,0,0,-0.9897,-0.9897,0,0,0,0,0,0,0,0,-0.9932,-0.993,-0.9919,-0.9919,-0.9919,-0.9911,-0.9912,-0.9901,-0.9911,-0.9914,-0.9911,-0.9912,-0.9904,-0.9903,-0.99,-0.9888,-0.9887,-0.9897,-0.9897,-0.9896,-0.9896,0,0,0,0,0,0,0,-0.9933,-0.9931,-0.9915,-0.9919,-0.9919,-0.9919,-0.9918,-0.991,-0.9907,-0.9913,-0.9914,-0.9912,-0.9904,-0.9901,-0.99,-0.9887,-0.9897,-0.9897,-0.9896,-0.9896,-0.9864,-0.9863,0,0,0,0,0,0,-0.9933,-0.9932,-0.9915,-0.9914,-0.9926,-0.9918,-0.9917,-0.9913,-0.9907,-0.9907,-0.9912,-0.9912,-0.9902,-0.9901,-0.9899,-0.9885,-0.9896,-0.9896,-0.9895,-0.9864,-0.9863,-0.9863,0,0,0,0,0,0,-0.9934,-0.9932,-0.9915,-0.9923,-0.9921,-0.9918,-0.9913,-0.9913,-0.991,-0.9906,-0.9906,-0.991,-0.9902,-0.9901,-0.9891,-0.9885,-0.9895,-0.9895,-0.9864,-0.9864,-0.9863,-0.9857,0,0,0,0,0,0,-0.9935,-0.9932,-0.9928,-0.9923,-0.992,-0.9907,-0.9913,-0.9912,-0.9908,-0.9909,-0.9904,-0.9903,-0.9902,-0.9892,-0.989,-0.9884,-0.9894,-0.9865,-0.9864,-0.9863,-0.9857,-0.9856,-0.9855,0,0,0,0,0,-0.9935,-0.9927,-0.9928,-0.9926,-0.9915,-0.9907,-0.9905,-0.9904,-0.9908,-0.9904,-0.9901,-0.9903,-0.9886,-0.9891,-0.9889,-0.9882,-0.9865,-0.9864,-0.9863,-0.9858,-0.9856,-0.9855,0,0,0,0,0,0,-0.9932,-0.9926,-0.9927,-0.9917,-0.9912,-0.9907,-0.9902,-0.9903,-0.9897,-0.9898,-0.9897,-0.9896,-0.9885,-0.9883,-0.9889,-0.987,-0.9876,-0.9875,-0.9873,-0.9871,-0.9869,-0.987,-0.9893,0,0,0,0,0,-0.993,-0.9924,-0.9919,-0.9911,-0.9908,-0.9905,-0.9901,-0.9901,-0.9896,-0.9894,-0.9891,-0.9886,-0.9879,-0.9875,-0.9869,-0.9857,-0.9855,-0.9851,-0.985,-0.9849,-0.9848,-0.984,-0.9838,-0.986,-0.986,-0.986,0,0,-0.9927,-0.9923,-0.9919,-0.991,-0.9906,-0.9899,-0.9904,-0.9896,-0.9891,-0.9893,-0.9883,-0.9881,-0.9875,-0.9864,-0.9859,-0.9862,-0.9841,-0.9848,-0.9847,-0.9846,-0.9839,-0.9837,-0.9835,-0.9859,-0.9859,-0.986,0,0,-0.9916,-0.9912,-0.9904,-0.99,-0.9894,-0.9892,-0.989,-0.9884,-0.9882,-0.9873,-0.9874,-0.9867,-0.9856,-0.9851,-0.9848,-0.9833,-0.9835,-0.9831,-0.9824,-0.9817,-0.9815,-0.9813,-0.9807,-0.9805,-0.983,-0.983,-0.983,0,-0.9912,-0.9901,-0.99,-0.9892,-0.9888,-0.9889,-0.988,-0.9876,-0.9869,-0.9865,-0.9868,-0.9853,-0.985,-0.9837,-0.9833,-0.983,-0.9827,-0.9832,-0.9815,-0.9814,-0.9812,-0.9806,-0.9804,-0.983,-0.983,-0.983,-0.983,0,-0.9896,-0.9889,-0.9883,-0.9875,-0.987,-0.9862,-0.9859,-0.9854,-0.9853,-0.9851,-0.984,-0.9835,-0.9827,-0.9824,-0.9824,-0.9811,-0.9813,-0.9815,-0.9821,-0.981,-0.9804,-0.9802,-0.9829,-0.9829,-0.9829,-0.9829,0,0,-0.9885,-0.9875,-0.9873,-0.9868,-0.9861,-0.9855,-0.9846,-0.9838,-0.9833,-0.9827,-0.982,-0.9809,-0.9811,-0.9807,-0.9806,-0.98,-0.9787,-0.9803,-0.9803,-0.98,-0.9771,-0.9769,-0.9766,-0.9788,-0.9788,-0.9787,-0.9771,0,-0.9873,-0.9858,-0.9855,-0.9842,-0.9834,-0.9834,-0.9826,-0.9821,-0.9818,-0.981,-0.9807,-0.9799,-0.9803,-0.98,-0.9794,-0.979,-0.9781,-0.9791,-0.978,-0.978,-0.9781,-0.9764,-0.9762,-0.9747,-0.9769,-0.9769,-0.9769,0,-0.9858,-0.985,-0.9836,-0.9828,-0.9825,-0.9818,-0.9809,-0.9803,-0.9796,-0.9794,-0.9788,-0.9788,-0.9778,-0.9784,-0.977,-0.9776,-0.9771,-0.9769,-0.9768,-0.9767,-0.9773,-0.9761,-0.9742,-0.974,-0.9765,-0.9766,-0.9766,0,-0.985,-0.9836,-0.9826,-0.9822,-0.9813,-0.9808,-0.9804,-0.9797,-0.9792,-0.9784,-0.978,-0.9772,-0.9767,-0.9761,-0.9758,-0.9762,-0.9743,-0.9749,-0.9741,-0.9741,-0.9737,-0.9737,-0.9716,-0.9735,-0.9735,-0.9735,-0.9735,0,-0.9837,-0.9828,-0.9822,-0.9815,-0.9804,-0.9801,-0.9791,-0.9787,-0.9781,-0.9773,-0.9772,-0.9765,-0.9761,-0.9753,-0.9751,-0.9739,-0.9737,-0.9735,-0.9734,-0.9735,-0.9735,-0.9731,-0.9732,-0.9734,-0.9734,-0.9734,-0.9735,0,-0.9827,-0.9822,-0.981,-0.9802,-0.9799,-0.9792,-0.9785,-0.9778,-0.9774,-0.9764,-0.9761,-0.9756,-0.9746,-0.9742,-0.973,-0.9728,-0.9714,-0.9715,-0.9717,-0.9716,-0.9708,-0.9709,-0.9684,-0.968,-0.9702,-0.9701,-0.9701,0,-0.9819,-0.9811,-0.9802,-0.9796,-0.9792,-0.9783,-0.9777,-0.9773,-0.9767,-0.9758,-0.9752,-0.9742,-0.9734,-0.9718,-0.9712,-0.9703,-0.9703,-0.9695,-0.9701,-0.9702,-0.9702,-0.9702,-0.9701,-0.9694,-0.9693,-0.9693,-0.9693,0,-0.9805,-0.9803,-0.9794,-0.9784,-0.9777,-0.977,-0.9762,-0.9758,-0.9753,-0.9746,-0.9735,-0.9729,-0.9716,-0.9706,-0.9695,-0.9691,-0.9691,-0.9691,-0.9688,-0.9689,-0.969,-0.9688,-0.9713,-0.9691,-0.9692,-0.9692,-0.9692,-0.9692,-0.9795,-0.9788,-0.978,-0.977,-0.9764,-0.9756,-0.9749,-0.9744,-0.9735,-0.9724,-0.9722,-0.971,-0.9702,-0.9688,-0.9683,-0.9674,-0.9676,-0.9672,-0.9671,-0.9671,-0.967,-0.9691,-0.9672,-0.9672,-0.9672,-0.9672,-0.9672,0,-0.9781,-0.9775,-0.9766,-0.9755,-0.9747,-0.9747,-0.9738,-0.9731,-0.9721,-0.9713,-0.9704,-0.9691,-0.9681,-0.9674,-0.9663,-0.9657,-0.9657,-0.9654,-0.9655,-0.9653,-0.9669,-0.9672,-0.9655,-0.9655,-0.9655,-0.9655,-0.9655,-0.9655,-0.9773,-0.976,-0.9757,-0.9741,-0.9735,-0.9723,-0.9718,-0.9711,-0.9704,-0.969,-0.9681,-0.9676,-0.9668,-0.9656,-0.9646,-0.9644,-0.964,-0.9638,-0.9636,-0.9651,-0.9652,-0.9654,-0.9657,-0.9637,-0.9637,-0.9621,-0.9621,-0.9621]},{"header":{"parameterUnit":"m.s-1","parameterCategory":1,"la1":30.2991,"la2":30.254,"lo1":-89.0895,"lo2":-89.0444,"dy":0.0017,"dx":0.0017,"nx":28,"ny":28,"refTime":"2024-07-27T09:00:00:Z","depth":0,"parameterNumber":3,"parameterNumberName":"V-component_of_WINDS"},"data":[0,0,0,0,0,0,0,0,0,0,0,0,0,0,0,0,0,0,0,0,0,0,0,0,0,0,0,0,0,0,0,0,0,0,0,0,0,0,0,0,0,0,0,0,0,0,0,0,0,0,0,0,0,0,0,0,0,0,3.2145,3.2146,0,3.22,3.22,3.2201,3.2144,3.2142,3.2139,3.2137,3.2194,3.2198,3.2201,0,0,0,0,0,0,0,0,0,0,0,0,0,3.1991,3.1994,3.2145,3.2146,3.2146,3.22,3.22,3.2201,3.2144,3.2141,3.2139,3.2136,3.2193,3.2197,3.2202,0,0,0,0,0,0,0,0,0,0,0,0,0,3.2053,3.1995,3.2145,3.2124,3.2123,3.2199,3.22,3.2201,3.2145,3.2141,3.2138,3.2135,3.2192,3.2197,3.2202,3.2302,0,0,3.2219,3.2221,0,0,0,0,0,0,0,0,3.2049,3.2059,3.2127,3.2126,3.2124,3.2161,3.2167,3.2235,3.2146,3.2137,3.2137,3.2133,3.2186,3.2192,3.2209,3.2305,3.2307,3.2219,3.2222,3.2225,3.2226,0,0,0,0,0,0,0,3.2045,3.2056,3.2167,3.2128,3.2126,3.2112,3.2117,3.218,3.2179,3.2137,3.2133,3.214,3.2185,3.2204,3.221,3.2308,3.2219,3.2224,3.2227,3.2229,3.2486,3.249,0,0,0,0,0,0,3.2043,3.2053,3.2165,3.2168,3.2078,3.2118,3.2123,3.2153,3.2178,3.2179,3.2143,3.2137,3.2197,3.2204,3.2212,3.233,3.2225,3.223,3.2233,3.2483,3.2487,3.2491,0,0,0,0,0,0,3.204,3.2054,3.2163,3.2109,3.2122,3.2124,3.2158,3.2156,3.2175,3.2183,3.2183,3.2163,3.2194,3.2205,3.228,3.2331,3.2232,3.2237,3.2478,3.2484,3.2489,3.2566,0,0,0,0,0,0,3.2036,3.2053,3.2091,3.2111,3.2125,3.223,3.2161,3.2159,3.2184,3.2178,3.2202,3.2202,3.2193,3.2272,3.2285,3.2336,3.2241,3.2474,3.2481,3.2487,3.2559,3.2574,3.2586,0,0,0,0,0,3.2031,3.2111,3.2093,3.2107,3.2173,3.2233,3.2241,3.2228,3.2189,3.2227,3.2232,3.2202,3.2323,3.228,3.2294,3.2348,3.2471,3.2479,3.2487,3.2553,3.2571,3.2586,0,0,0,0,0,0,3.2098,3.2113,3.2094,3.2183,3.2207,3.2223,3.2271,3.2247,3.2283,3.2275,3.2258,3.2263,3.2343,3.2353,3.2305,3.2445,3.239,3.2402,3.2436,3.2453,3.2466,3.2462,3.2246,0,0,0,0,0,3.2124,3.2171,3.2181,3.2259,3.2272,3.227,3.2295,3.2283,3.2307,3.2317,3.2327,3.2352,3.2395,3.2425,3.2465,3.256,3.2564,3.2604,3.2617,3.2628,3.2638,3.2688,3.2706,3.2518,3.2518,3.2517,0,0,3.2176,3.219,3.2222,3.2273,3.229,3.2339,3.2279,3.2333,3.2369,3.2325,3.2396,3.2405,3.2431,3.2516,3.2554,3.2527,3.2691,3.2639,3.2647,3.2651,3.2698,3.2716,3.2732,3.2523,3.2522,3.2521,0,0,3.2298,3.2313,3.2379,3.2397,3.2423,3.2421,3.2437,3.2456,3.246,3.2531,3.2498,3.2541,3.2617,3.2636,3.2656,3.2783,3.2757,3.2797,3.2867,3.2916,3.2931,3.2944,3.2988,3.3005,3.2807,3.2807,3.2807,0,3.236,3.2433,3.2416,3.2473,3.2496,3.2458,3.2524,3.2542,3.2581,3.2598,3.2566,3.2659,3.2675,3.2763,3.2794,3.2812,3.2829,3.2794,3.293,3.2943,3.2955,3.2997,3.3014,3.2812,3.2811,3.2811,3.281,0,3.2508,3.2559,3.2609,3.2646,3.2675,3.2736,3.2728,3.276,3.2744,3.2745,3.2817,3.2834,3.2876,3.2896,3.2883,3.2983,3.2965,3.2932,3.2877,3.2978,3.3017,3.3033,3.2818,3.2817,3.2815,3.2814,0,0,3.2675,3.2701,3.2719,3.2735,3.276,3.2799,3.2858,3.2899,3.2926,3.2953,3.3002,3.3066,3.3035,3.3058,3.3046,3.3089,3.3187,3.305,3.3051,3.3075,3.3298,3.3322,3.3341,3.3169,3.3172,3.3175,3.3295,0,3.2796,3.2898,3.2884,3.2982,3.3028,3.2992,3.3043,3.3064,3.3066,3.3105,3.3107,3.3152,3.3109,3.3122,3.3163,3.3167,3.3232,3.3158,3.3214,3.3217,3.3209,3.3362,3.3389,3.3502,3.3311,3.3313,3.3315,0,3.2952,3.2984,3.3086,3.3103,3.3122,3.3168,3.3204,3.3242,3.3264,3.3262,3.3287,3.3267,3.3325,3.3269,3.3349,3.3299,3.3321,3.3327,3.3331,3.3336,3.3272,3.3371,3.3537,3.3554,3.334,3.3338,3.3336,0,3.3062,3.3131,3.3201,3.3215,3.3237,3.327,3.3281,3.33,3.3325,3.3356,3.3372,3.341,3.3431,3.3461,3.3451,3.3411,3.3533,3.3476,3.3533,3.3533,3.3561,3.3559,3.3733,3.3576,3.3575,3.3575,3.3575,0,3.3199,3.3264,3.3251,3.3294,3.3364,3.3347,3.3417,3.3423,3.344,3.3483,3.3454,3.3495,3.348,3.352,3.3513,3.358,3.359,3.359,3.3587,3.3592,3.3592,3.3607,3.3599,3.358,3.3579,3.3578,3.3577,0,3.3335,3.3329,3.3403,3.3416,3.3421,3.3472,3.3484,3.3524,3.3523,3.3578,3.359,3.3588,3.3634,3.3627,3.3678,3.3673,3.3757,3.3745,3.3749,3.3746,3.3804,3.3798,3.3993,3.4017,3.3844,3.3846,3.3847,0,3.3423,3.3471,3.349,3.3516,3.3529,3.3572,3.3597,3.3582,3.3609,3.3637,3.3674,3.3717,3.375,3.3825,3.3828,3.3867,3.3855,3.3921,3.3861,3.3864,3.3856,3.3853,3.3857,3.3933,3.3935,3.3936,3.3938,0,3.358,3.3574,3.3611,3.3647,3.3677,3.3705,3.3729,3.3753,3.3739,3.3771,3.3817,3.3843,3.3894,3.3937,3.3973,3.3984,3.3959,3.3956,3.3971,3.3978,3.3978,3.3978,3.3781,3.3952,3.3951,3.395,3.3949,3.3948,3.3694,3.3735,3.3753,3.3795,3.3812,3.3835,3.3873,3.3876,3.3914,3.3954,3.3942,3.3994,3.4014,3.406,3.4074,3.4114,3.409,3.4112,3.4118,3.4124,3.413,3.3971,3.4121,3.412,3.412,3.412,3.4119,0,3.3849,3.3858,3.3897,3.3932,3.3964,3.3937,3.3962,3.3992,3.4037,3.4058,3.4091,3.4143,3.4184,3.419,3.4229,3.426,3.4249,3.427,3.4268,3.4271,3.415,3.4133,3.4278,3.4278,3.4278,3.4278,3.4278,3.4278,3.3933,3.4,3.3996,3.407,3.4079,3.413,3.4146,3.4167,3.4183,3.4243,3.4276,3.428,3.4294,3.4333,3.4369,3.437,3.4386,3.4412,3.4408,3.4295,3.4279,3.4264,3.4248,3.4415,3.4415,3.4525,3.4526,3.4527]}]]